When you browse on this site, cookies collect data to enhance your experience and personalize the content and advertising you see.
Visit our Privacy Policy to learn more. By continuing to use the site, you agree to this use of cookies and data.
  • în România
  • Lista ţărilor
  • Pe 7 zile
  • Temperatura apei
  • Meteo pe hartă
  • Widget-uri
  • user-avatar
    Intrare

    Meteo pe oră la Pontypridd

    Astăzi, 23 Octombrie, Miercuri

    Timp Temperatura Precipitaţii Vânt Presiune Umiditate
    00:00 +8°C° 0 mm 1 m/s 754 mmHg 89%
    01:00 +8°C° 0 mm 1 m/s 753 mmHg 90%
    02:00 +8°C° 0 mm 1 m/s 753 mmHg 92%
    03:00 +8°C° 0 mm 1 m/s 752 mmHg 93%
    04:00 +8°C° 0 mm 1 m/s 752 mmHg 94%
    05:00 +7°C° 0 mm 2 m/s 751 mmHg 95%
    06:00 +7°C° 0 mm 2 m/s 751 mmHg 96%
    07:00 +8°C° 0 mm 2 m/s 751 mmHg 95%
    08:00 +9°C° 0 mm 2 m/s 750 mmHg 94%
    09:00 +9°C° 0 mm 2 m/s 750 mmHg 93%
    10:00 +10°C° 0 mm 3 m/s 750 mmHg 90%
    11:00 +11°C° 0 mm 3 m/s 749 mmHg 88%
    12:00 +12°C° 0 mm 3 m/s 749 mmHg 85%
    13:00 +12°C° 0 mm 3 m/s 748 mmHg 85%
    14:00 +13°C° 0 mm 2 m/s 747 mmHg 85%
    15:00 +13°C° 0 mm 2 m/s 746 mmHg 85%
    16:00 +12°C° 0 mm 2 m/s 746 mmHg 89%
    17:00 +10°C° 0 mm 2 m/s 746 mmHg 92%
    18:00 +9°C° 0 mm 1 m/s 745 mmHg 95%
    19:00 +9°C° 0 mm 1 m/s 745 mmHg 95%
    20:00 +9°C° 0 mm 1 m/s 745 mmHg 95%
    21:00 +10°C° 0 mm 1 m/s 745 mmHg 95%
    22:00 +9°C° 0 mm 1 m/s 744 mmHg 95%
    23:00 +9°C° 0 mm 1 m/s 744 mmHg 95%

    Mâine, 24 Octombrie, Joi

    Timp Temperatura Precipitaţii Vânt Presiune Umiditate
    00:00 +8°C° 0 mm 1 m/s 743 mmHg 95%
    01:00 +8°C° 0 mm 1 m/s 743 mmHg 94%
    02:00 +8°C° 0 mm 1 m/s 743 mmHg 92%
    03:00 +8°C° 0 mm 1 m/s 742 mmHg 91%
    04:00 +7°C° 0 mm 2 m/s 742 mmHg 90%
    05:00 +7°C° 0 mm 2 m/s 742 mmHg 90%
    06:00 +7°C° 0 mm 2 m/s 742 mmHg 89%
    07:00 +8°C° 0.3 mm 2 m/s 742 mmHg 91%
    08:00 +9°C° 0.3 mm 2 m/s 742 mmHg 93%
    09:00 +9°C° 0.3 mm 2 m/s 742 mmHg 95%
    10:00 +10°C° 0.1 mm 3 m/s 742 mmHg 90%
    11:00 +11°C° 0.1 mm 4 m/s 742 mmHg 85%
    12:00 +11°C° 0.1 mm 6 m/s 742 mmHg 80%
    13:00 +11°C° 0 mm 6 m/s 742 mmHg 80%
    14:00 +11°C° 0 mm 6 m/s 742 mmHg 79%
    15:00 +11°C° 0 mm 7 m/s 743 mmHg 79%
    16:00 +10°C° 0.2 mm 6 m/s 743 mmHg 82%
    17:00 +9°C° 0.2 mm 6 m/s 744 mmHg 85%
    18:00 +7°C° 0.2 mm 5 m/s 744 mmHg 89%
    19:00 +7°C° 0.1 mm 5 m/s 745 mmHg 90%
    20:00 +6°C° 0.1 mm 4 m/s 746 mmHg 91%
    21:00 +6°C° 0.1 mm 4 m/s 747 mmHg 92%
    22:00 +5°C° 0 mm 3 m/s 747 mmHg 90%
    23:00 +5°C° 0 mm 3 m/s 748 mmHg 88%

    Poimâine, 25 Octombrie, Vineri

    Timp Temperatura Precipitaţii Vânt Presiune Umiditate
    00:00 +6°C° 0 mm 2 m/s 748 mmHg 86%
    01:00 +6°C° 0 mm 2 m/s 748 mmHg 84%
    02:00 +6°C° 0 mm 2 m/s 749 mmHg 82%
    03:00 +7°C° 0 mm 1 m/s 749 mmHg 80%
    04:00 +7°C° 0 mm 1 m/s 749 mmHg 80%
    05:00 +7°C° 0 mm 1 m/s 749 mmHg 80%
    06:00 +7°C° 0 mm 1 m/s 749 mmHg 79%
    07:00 +6°C° 0.6 mm 2 m/s 748 mmHg 84%
    08:00 +7°C° 0.6 mm 2 m/s 747 mmHg 89%
    09:00 +7°C° 0.6 mm 3 m/s 747 mmHg 93%
    10:00 +7°C° 2.6 mm 4 m/s 745 mmHg 95%
    11:00 +8°C° 2.6 mm 5 m/s 743 mmHg 96%
    12:00 +9°C° 2.6 mm 7 m/s 741 mmHg 97%
    13:00 +9°C° 3.2 mm 10 m/s 739 mmHg 95%
    14:00 +12°C° 3.2 mm 13 m/s 738 mmHg 93%
    15:00 +14°C° 3.2 mm 16 m/s 736 mmHg 91%
    16:00 +9°C° 0.1 mm 13 m/s 737 mmHg 89%
    17:00 +6°C° 0.1 mm 11 m/s 739 mmHg 87%
    18:00 +2°C° 0.1 mm 8 m/s 741 mmHg 85%
    19:00 +3°C° 0 mm 7 m/s 743 mmHg 86%
    20:00 +3°C° 0 mm 7 m/s 745 mmHg 87%
    21:00 +3°C° 0 mm 6 m/s 747 mmHg 88%
    22:00 +3°C° 0 mm 5 m/s 747 mmHg 88%
    23:00 +2°C° 0 mm 5 m/s 748 mmHg 88%

    26 Octombrie, Sâmbătă

    Timp Temperatura Precipitaţii Vânt Presiune Umiditate
    00:00 +1°C° 0 mm 5 m/s 748 mmHg 89%
    01:00 +1°C° 0 mm 4 m/s 749 mmHg 87%
    02:00 +1°C° 0 mm 4 m/s 749 mmHg 85%
    03:00 +3°C° 0 mm 4 m/s 749 mmHg 83%
    04:00 +3°C° 0 mm 4 m/s 749 mmHg 83%
    05:00 +3°C° 0 mm 4 m/s 750 mmHg 83%
    06:00 +3°C° 0 mm 4 m/s 750 mmHg 83%
    07:00 +4°C° 0 mm 4 m/s 750 mmHg 81%
    08:00 +5°C° 0 mm 4 m/s 750 mmHg 80%
    09:00 +6°C° 0 mm 4 m/s 751 mmHg 78%
    10:00 +6°C° 0.2 mm 5 m/s 751 mmHg 77%
    11:00 +7°C° 0.2 mm 6 m/s 751 mmHg 77%
    12:00 +6°C° 0.2 mm 8 m/s 751 mmHg 77%
    13:00 +6°C° 0.1 mm 8 m/s 751 mmHg 75%
    14:00 +6°C° 0.1 mm 8 m/s 751 mmHg 74%
    15:00 +6°C° 0.1 mm 7 m/s 751 mmHg 72%
    16:00 +5°C° 0 mm 7 m/s 751 mmHg 75%
    17:00 +4°C° 0 mm 6 m/s 752 mmHg 78%
    18:00 +2°C° 0 mm 5 m/s 753 mmHg 81%
    19:00 +2°C° 0 mm 5 m/s 753 mmHg 81%
    20:00 +2°C° 0 mm 5 m/s 754 mmHg 81%
    21:00 +3°C° 0 mm 4 m/s 754 mmHg 81%
    22:00 +1°C° 0 mm 4 m/s 755 mmHg 82%
    23:00 +1°C° 0 mm 4 m/s 755 mmHg 82%

    27 Octombrie, Duminică

    Timp Temperatura Precipitaţii Vânt Presiune Umiditate
    00:00 +2°C° 0 mm 3 m/s 755 mmHg 82%
    01:00 +2°C° 0 mm 3 m/s 756 mmHg 81%
    02:00 +2°C° 0 mm 2 m/s 756 mmHg 81%
    03:00 +3°C° 0 mm 1 m/s 756 mmHg 80%
    04:00 +3°C° 0 mm 1 m/s 756 mmHg 81%
    05:00 +3°C° 0 mm 1 m/s 757 mmHg 82%
    06:00 +3°C° 0 mm 1 m/s 757 mmHg 82%
    07:00 +4°C° 0 mm 1 m/s 757 mmHg 81%
    08:00 +5°C° 0 mm 1 m/s 757 mmHg 80%
    09:00 +7°C° 0 mm 1 m/s 758 mmHg 79%
    10:00 +8°C° 0 mm 1 m/s 758 mmHg 76%
    11:00 +9°C° 0 mm 1 m/s 758 mmHg 73%
    12:00 +9°C° 0 mm 2 m/s 758 mmHg 70%
    13:00 +9°C° 0 mm 2 m/s 757 mmHg 71%
    14:00 +9°C° 0 mm 2 m/s 757 mmHg 73%
    15:00 +9°C° 0 mm 3 m/s 757 mmHg 75%
    16:00 +8°C° 0 mm 3 m/s 757 mmHg 80%
    17:00 +5°C° 0 mm 3 m/s 757 mmHg 84%
    18:00 +4°C° 0 mm 3 m/s 756 mmHg 89%
    19:00 +4°C° 0 mm 3 m/s 756 mmHg 89%
    20:00 +4°C° 0 mm 4 m/s 756 mmHg 90%
    21:00 +4°C° 0 mm 4 m/s 756 mmHg 90%
    22:00 +4°C° 0 mm 4 m/s 756 mmHg 91%
    23:00 +3°C° 0 mm 5 m/s 756 mmHg 91%

    28 Octombrie, Luni

    Timp Temperatura Precipitaţii Vânt Presiune Umiditate
    00:00 +3°C° 0 mm 5 m/s 756 mmHg 92%
    01:00 +3°C° 0 mm 5 m/s 755 mmHg 92%
    02:00 +3°C° 0 mm 5 m/s 755 mmHg 91%
    03:00 +3°C° 0 mm 5 m/s 755 mmHg 91%
    04:00 +3°C° 0 mm 6 m/s 755 mmHg 90%
    05:00 +3°C° 0 mm 6 m/s 755 mmHg 90%
    06:00 +3°C° 0 mm 7 m/s 754 mmHg 89%
    07:00 +3°C° 0 mm 7 m/s 754 mmHg 88%
    08:00 +3°C° 0 mm 7 m/s 754 mmHg 87%
    09:00 +3°C° 0 mm 7 m/s 754 mmHg 87%
    10:00 +4°C° 0.2 mm 8 m/s 754 mmHg 87%
    11:00 +4°C° 0.2 mm 8 m/s 754 mmHg 87%
    12:00 +4°C° 0.2 mm 8 m/s 754 mmHg 88%
    13:00 +5°C° 0.5 mm 8 m/s 754 mmHg 89%
    14:00 +5°C° 0.5 mm 9 m/s 754 mmHg 90%
    15:00 +5°C° 0.5 mm 9 m/s 753 mmHg 91%
    16:00 +5°C° 1.1 mm 9 m/s 753 mmHg 91%
    17:00 +5°C° 1.1 mm 9 m/s 753 mmHg 92%
    18:00 +5°C° 1.1 mm 9 m/s 753 mmHg 93%
    19:00 +5°C° 0.9 mm 9 m/s 753 mmHg 93%
    20:00 +5°C° 0.9 mm 9 m/s 754 mmHg 93%
    21:00 +5°C° 0.9 mm 9 m/s 754 mmHg 94%
    22:00 +5°C° 1.1 mm 9 m/s 754 mmHg 94%
    23:00 +3°C° 1.1 mm 9 m/s 753 mmHg 94%

    29 Octombrie, Marţi

    Timp Temperatura Precipitaţii Vânt Presiune Umiditate
    00:00 +3°C° 1.1 mm 9 m/s 753 mmHg 94%
    01:00 +3°C° 1.1 mm 9 m/s 753 mmHg 94%
    02:00 +5°C° 1.1 mm 9 m/s 753 mmHg 94%
    03:00 +5°C° 1.1 mm 9 m/s 753 mmHg 94%
    04:00 +5°C° 1.3 mm 9 m/s 753 mmHg 94%
    05:00 +5°C° 1.3 mm 9 m/s 753 mmHg 95%
    06:00 +5°C° 1.3 mm 9 m/s 753 mmHg 95%
    07:00 +5°C° 0.9 mm 9 m/s 754 mmHg 94%
    08:00 +5°C° 0.9 mm 9 m/s 754 mmHg 94%
    09:00 +5°C° 0.9 mm 9 m/s 755 mmHg 94%
    10:00 +5°C° 0.5 mm 9 m/s 755 mmHg 93%
    11:00 +5°C° 0.5 mm 9 m/s 755 mmHg 93%
    12:00 +5°C° 0.5 mm 9 m/s 756 mmHg 92%
    13:00 +5°C° 0.4 mm 9 m/s 756 mmHg 92%
    14:00 +5°C° 0.4 mm 9 m/s 756 mmHg 91%
    15:00 +5°C° 0.4 mm 9 m/s 757 mmHg 91%
    16:00 +5°C° 0.4 mm 8 m/s 757 mmHg 90%
    17:00 +5°C° 0.4 mm 8 m/s 757 mmHg 90%
    18:00 +5°C° 0.4 mm 8 m/s 758 mmHg 89%
    19:00 +5°C° 0.1 mm 8 m/s 758 mmHg 88%
    20:00 +5°C° 0.1 mm 8 m/s 759 mmHg 87%
    21:00 +5°C° 0.1 mm 8 m/s 759 mmHg 87%
    22:00 +5°C° 0 mm 8 m/s 759 mmHg 86%
    23:00 +5°C° 0 mm 7 m/s 759 mmHg 85%
    Arată mai mult